This is the latest recevied weather packets stored in our database for station/object SR9SMR. If no packets are shown the sender has not sent any weather packets the latest 10 day(s).
| Time | Temp. | Humidity | Pressure | Rain* | Wind** | Luminosity | Snow |
|---|---|---|---|---|---|---|---|
| 1787654515 | 11.67° C | 100% | 0 hPa | - | - | - | - |
| 1787654345 | 11.11° C | 100% | 903.2 hPa | - | - | - | - |
| 1787654274 | 11.67° C | 100% | 0 hPa | - | - | - | - |
| 1787654189 | 11.11° C | 100% | 902.8 hPa | - | - | - | - |
| 1787654126 | 11.11° C | 100% | 902.9 hPa | - | - | - | - |
| 1787654061 | 11.11° C | 100% | 902.7 hPa | - | - | - | - |
| 1787653934 | 11.11° C | 100% | 902.8 hPa | - | - | - | - |
| 1787653806 | 10.56° C | 100% | 903.7 hPa | - | - | - | - |
| 1787653679 | 10.56° C | 100% | 902.3 hPa | - | - | - | - |
| 1787653552 | 11.11° C | 100% | 0 hPa | - | - | - | - |
| 1787653383 | 10.56° C | 100% | 0 hPa | - | - | - | - |
| 1787653324 | 10.56° C | 100% | 0 hPa | - | - | - | - |
| 1787653188 | 11.67° C | 100% | 0 hPa | - | - | - | - |
| 1787653041 | 12.22° C | 100% | 905.6 hPa | - | - | - | - |
| 1787652978 | 12.78° C | 100% | 908.8 hPa | - | - | - | - |
| 1787652912 | 12.78° C | 100% | 902.7 hPa | - | - | - | - |
| 1787652785 | 12.78° C | 100% | 902.3 hPa | - | - | - | - |
| 1787652650 | 12.78° C | 100% | 902.7 hPa | - | - | - | - |
| 1787652501 | 12.78° C | 100% | 903.7 hPa | - | - | - | - |
| 1787652375 | 12.78° C | 100% | 902.7 hPa | - | - | - | - |
| 1787652310 | 12.78° C | 100% | 904.7 hPa | - | - | - | - |
| 1787652245 | 12.78° C | 100% | 902.1 hPa | - | - | - | - |
| 1787652193 | 12.78° C | 100% | 902 hPa | - | - | - | - |
| 1787652117 | 12.78° C | 100% | 902 hPa | - | - | - | - |
| 1787652088 | 12.78° C | 100% | 903 hPa | - | - | - | - |
* Rain since midnight (hover to see other rain measurements)
** Current wind speed in m/s (hover to see current wind gust speed)